User: anonymous   Login
Location: Smithers
(54.7670°N, 127.1670°W)
Time: 09:01:14
(UTC-08:00)
Language:

ERBS - Orbit

View from above orbital plane
View from above orbital plane
View from above satellite
View from above satellite

Ground track
Ground track

The orbit data is extracted from the following two-line orbital elements,

1 15354U 84108B   14327.13148898  .00011840  00000-0  39653-3 0  6426
2 15354 057.0115 184.0765 0020366 123.8752 236.4239 15.31237611653941
Epoch (UTC): 23 November 2014 03:09:20
Eccentricity: 0.0020366
inclination: 57.0115°
perigee height: 458 km
apogee height: 486 km
right ascension of ascending node: 184.0765°
argument of perigee: 123.8752°
revolutions per day: 15.31237611
mean anomaly at epoch: 236.4239°
orbit number at epoch: 65394

The dashed part of the orbit path shows where the satellite is in the earth's shadow,  

DLR